Regional Weather Roundup
Issued by NWS Nashville, TN

Home | Current Version | Previous Version | Text Only | Print | Product List | Glossary On
Versions: 1 2 3 4 5 6 7 8 9 10 11 12 13 14 15 16 17 18 19 20 21 22 23 24 25 26 27 28 29 30 31 32 33 34 35 36 37 38 39 40 41 42 43 44 45 46 47 48 49 50
000
ASUS44 KOHX 010015
RWROHX
MIDDLE TENNESSEE HOURLY WEATHER ROUNDUP
NATIONAL WEATHER SERVICE NASHVILLE TN
700 PM CDT THU JUL 31 2014

NOTE: "FAIR" INDICATES FEW OR NO CLOUDS BELOW 12,000 FEET WITH
NO SIGNIFICANT WEATHER AND/OR OBSTRUCTIONS TO VISIBILITY.

* THESE REPORTS ARE NOT UNDER NWS QUALITY CONTROL AND MAY NOT
  REPORT WEATHER SUCH AS PRECIPITATION AND FOG.


TNZ005>011-023>034-057-059-062>066-078-080-010100
...NORTHERN MIDDLE TENNESSEE...

CITY           SKY/WX    TMP DP  RH WIND       PRES   REMARKS
CLARKSVILLE    MOCLDY    81  56  42 NW5       30.05S
CROSSVILLE     CLOUDY    74  60  61 E3        30.12S
GALLATIN         N/A     82  60  47 CALM      30.07S
DICKSON        MOCLDY    75  61  60 CALM      30.07S
LEBANON        CLOUDY    80  59  48 CALM      30.05S
LIVINGSTON       N/A     74  57  55 CALM      30.10S
NASHVILLE      CLOUDY    82  55  39 NE5       30.06S
WEST NASHVILLE   N/A     82  55  39 NW3       30.05S
PORTLAND       CLOUDY    79  61  53 CALM      30.06S
SMYRNA         MOCLDY    80  63  56 SE5       30.06S
SPARTA         PTCLDY    75  64  69 CALM      30.08S
$$
TNZ056-058-060-061-075>077-079-093>097-010100
...SOUTHERN MIDDLE TENNESSEE...

CITY           SKY/WX    TMP DP  RH WIND       PRES   REMARKS
COLUMBIA       CLEAR     81  61  50 N3        30.06R
FAYETTEVILLE   CLEAR     77  57  50 E6        30.08R
LEWISBURG      CLOUDY    80  56  43 CALM      30.06S
MCMINNVILLE    PTCLDY    75  64  69 CALM      30.08S
MURFREESBORO   MOCLDY    79  60  51 E3        30.05S
SHELBYVILLE    CLEAR     81  61  50 CALM      30.08S
TULLAHOMA      CLEAR     75  57  53 CALM      30.09S
WINCHESTER     CLEAR     79  59  50 CALM      30.08S
$$


...KEY TO REMARKS...
VSB - VISIBILITY IN MILES
WCI - WIND CHILL INDEX
HX  - HEAT INDEX




USA.gov is the U.S. government's official web portal to all federal, state and local government web resources and services.